Jacksonville, FL

8:04 AM EST on February 19, 2017 (GMT -0500)
Jacksonville International

Weather History for KJAX - October, 2013

Change the Weather History Date:

Saturday, October 26, 2013

  Actual Average Record
Temperature  
Mean Temperature 60 °F 68 °F  
Max Temperature 72 °F 78 °F 89 °F (2010)
Min Temperature 47 °F 57 °F 38 °F (1980)
Degree Days  
Heating Degree Days 5 2  
Month to date heating degree days 15 16  
Since 1 July heating degree days 15 16  
Cooling Degree Days 0 4  
Month to date cooling degree days 189 179  
Year to date cooling degree days 2528 2565  
Growing Degree Days 9 (Base 50)    
Moisture  
Dew Point 50 °F    
Average Humidity 75    
Maximum Humidity 100    
Minimum Humidity 49    
Precipitation  
Precipitation 0.00 in 0.07 in 1.79 in (1985)
Month to date precipitation 1.58 3.56  
Year to date precipitation 41.52 47.11  
Snow  
Snow 0.00 in 0.00 in 0.00 in (2002)
Month to date snowfall 0.0 0.0  
Since 1 July snowfall 0.0 0.0  
Since 1 September snowfall 0.0 0.0  
Snow Depth 0.00 in    
Sea Level Pressure  
Sea Level Pressure 30.21 in    
Wind  
Wind Speed 3 mph (NNE)    
Max Wind Speed 13 mph    
Max Gust Speed 18 mph    
Visibility 10 miles    
Events      
T = Trace of Precipitation, MM = Missing Value Source: NWS Daily Summary

Daily Weather History Graph

Daily Weather History Graph

Search for Another Location

Airport or City:

Trip Planner

Search our weather history database for the weather conditions in past years. The results will help you decide how hot, cold, wet, or windy it might be!

Date:

Astronomy

Oct. 26, 2013 Rise Set
Actual Time 7:36 AM EDT 6:44 PM EDT
Civil Twilight 7:12 AM EDT 7:08 PM EDT
Nautical Twilight 6:44 AM EDT 7:36 PM EDT
Astronomical Twilight 6:16 AM EDT 8:04 PM EDT
Moon 12:08 AM EDT (10/26) 1:48 PM EDT (10/26)
Length of Visible Light 11h 56m
Length of Day
11h 07m
Waning Gibbous, 53% of the Moon is Illuminated
Oct 26
Waning Gibbous
Oct 26
Last Quarter
Nov 3
New
Nov 10
First Quarter
Nov 17
Full

Hourly Weather History & Observations

Time (EDT) Temp. Dew Point Humidity Pressure Visibility Wind Dir Wind Speed Gust Speed Precip Events Conditions
12:56 AM 51.1 °F 45.0 °F 80% 30.27 in 10.0 mi North 5.8 mph - N/A   Clear
1:56 AM 50.0 °F 45.0 °F 83% 30.25 in 10.0 mi North 3.5 mph - N/A   Clear
2:56 AM 48.9 °F 45.0 °F 86% 30.24 in 10.0 mi North 3.5 mph - N/A   Clear
3:56 AM 48.0 °F 45.0 °F 89% 30.22 in 10.0 mi Calm Calm - N/A   Clear
4:56 AM 48.0 °F 45.0 °F 89% 30.21 in 10.0 mi NNE 3.5 mph - N/A   Clear
5:56 AM 48.0 °F 44.1 °F 86% 30.22 in 10.0 mi Calm Calm - N/A   Clear
6:56 AM 48.0 °F 44.1 °F 86% 30.23 in 10.0 mi Calm Calm - N/A   Partly Cloudy
7:56 AM 46.9 °F 44.1 °F 90% 30.25 in 10.0 mi Calm Calm - N/A   Partly Cloudy
8:56 AM 52.0 °F 46.0 °F 80% 30.26 in 10.0 mi North 4.6 mph - N/A   Partly Cloudy
9:56 AM 57.9 °F 48.9 °F 72% 30.27 in 10.0 mi North 5.8 mph - N/A   Partly Cloudy
10:56 AM 64.0 °F 51.1 °F 63% 30.27 in 10.0 mi North 4.6 mph - N/A   Partly Cloudy
11:56 AM 66.9 °F 53.1 °F 61% 30.25 in 10.0 mi NNE 6.9 mph 16.1 mph N/A   Partly Cloudy
12:56 PM 68.0 °F 53.1 °F 59% 30.23 in 10.0 mi Calm Calm - N/A   Mostly Cloudy
1:56 PM 69.1 °F 52.0 °F 54% 30.21 in 10.0 mi NNE 5.8 mph - N/A   Scattered Clouds
2:56 PM 71.1 °F 52.0 °F 51% 30.19 in 10.0 mi NE 8.1 mph - N/A   Scattered Clouds
3:56 PM 69.1 °F 53.1 °F 57% 30.17 in 10.0 mi NE 9.2 mph - N/A   Scattered Clouds
4:56 PM 68.0 °F 54.0 °F 61% 30.16 in 10.0 mi NE 11.5 mph - N/A   Partly Cloudy
5:56 PM 64.9 °F 54.0 °F 68% 30.16 in 10.0 mi ENE 9.2 mph - N/A   Partly Cloudy
6:56 PM 60.1 °F 54.0 °F 80% 30.16 in 10.0 mi ENE 4.6 mph - N/A   Clear
7:56 PM 57.0 °F 54.0 °F 89% 30.17 in 10.0 mi Calm Calm - N/A   Clear
8:56 PM 55.0 °F 54.0 °F 96% 30.17 in 10.0 mi Calm Calm - N/A   Clear
9:56 PM 54.0 °F 52.0 °F 93% 30.17 in 10.0 mi Calm Calm - N/A   Clear
10:56 PM 52.0 °F 51.1 °F 97% 30.17 in 8.0 mi Calm Calm - N/A   Clear
11:56 PM 50.0 °F 48.9 °F 96% 30.17 in 8.0 mi Calm Calm - N/A   Clear